Skip Page Navigation
NASA JPL Caltech
NASA Logo - Jet Propulsion Laboratory + View the NASA Portal
+ Center for Near-Earth Object Studies
JPL Home Earth Solar System Stars & Galaxies Technology
JPL Solar System Dynamics
BODIES ORBITS EPHEMERIDES TOOLS PHYSICAL DATA DISCOVERY FAQ SITE MAP
JPL Small-Body Database Browser
Search: [ help ]  
233471 (2006 KM110)
Classification: Main-belt Asteroid          SPK-ID: 2233471
Ephemeris | Orbit Diagram | Orbital Elements | Mission Design | Physical Parameters | Discovery Circumstances | Close-Approach Data ]

[ show orbit diagram ]
Orbital Elements at Epoch 2459000.5 (2020-May-31.0) TDB
Reference: JPL 16 (heliocentric ecliptic J2000)
 Element Value Uncertainty (1-sigma)   Units 
e .05791670476939768 5.2935e-08  
a 3.116287083683059 4.2845e-08 au
q 2.9358020046807 1.8136e-07 au
i 2.753859714584388 6.4219e-06 deg
node 303.4237578269384 0.00015878 deg
peri 128.8920252641358 0.00017728 deg
M 356.9546837220558 7.6452e-05 deg
tp 2459017.497479241432
(2020-Jun-16.99747924)
0.00042666 TDB
period 2009.345489410533
5.50
4.1439e-05
1.135e-07
d
yr
n .1791628178913177 3.6949e-09 deg/d
Q 3.296772162685417 4.5326e-08 au
  Orbit Determination Parameters
   # obs. used (total)      169  
   data-arc span      5427 days (14.86 yr)  
   first obs. used      2005-03-11  
   last obs. used      2020-01-19  
   planetary ephem.      DE431  
   SB-pert. ephem.      SB431-N16  
   condition code      0  
   norm. resid. RMS      .5922  
   source      ORB  
   producer      Otto Matic  
   solution date      2020-Feb-25 07:20:01  

Additional Information
 Earth MOID = 1.95153 au 
 Jupiter MOID = 1.87333 au 
 T_jup = 3.213 
[ show covariance matrix ]

Ephemeris | Orbit Diagram | Orbital Elements | Mission Design | Physical Parameters | Discovery Circumstances | Close-Approach Data ]

Physical Parameter Table
Parameter Symbol Value Units Sigma Reference Notes
absolute magnitude H 16.1   n/a MPO454688  

233471 (2006 KM110)          Discovered 2006-May-31 by Mt. Lemmon Survey at Mount Lemmon
Reference: 20100228/Numbers.arcLast Updated: 2010-03-03

[ show close-approach data ]
Alternate Designations
 2006 KM110 = 2008 SH94 
Ephemeris | Orbit Diagram | Orbital Elements | Mission Design | Physical Parameters | Discovery Circumstances | Close-Approach Data ]
ABOUT SSD CREDITS/AWARDS PRIVACY/COPYRIGHT GLOSSARY LINKS
FirstGov 2020-Jul-10 09:26 UT
(server date/time)  
NASA Home Page
Site Manager:   Ryan S. Park
Webmaster  Alan B. Chamberlin